Current Version              Previous Version:    01  02  03  04  05  06  07  08  09  10  11  12  13  14  15  16  17  18  19  20  21  22  23  24  25  26  27  28  29  30  
   31  32  33  34  35  36  37  38  39  40  41  42  43  44  45  46  47  48  49  50  51  52  53  54  55  56  57  58  59  60  

[Printable]
380
ASUS44 KEWX 230702
RWRTX
SOUTH TEXAS REGIONAL WEATHER ROUNDUP
NATIONAL WEATHER SERVICE AUSTIN/SAN ANTONIO TX
200 AM CDT WED JUL 23 2014

NOTE: "FAIR" INDICATED FEW OR NO CLOUDS BELOW 12,000 FEET WITH NO
SIGNIFICANT WEATHER AND/OR OBSTRUCTIONS TO VISIBILITY.

* - THESE STATIONS ARE NOT NWS OR FAA STATIONS...AND ARE NOT SUBJECT
    TO NWS AND FAA QUALITY CONTROL.

TXZ171-172-183>190-230800-
TEXAS HILL COUNTRY AND EDWARDS PLATEAU

CITY           SKY/WX    TMP DP  RH WIND       PRES   REMARKS
JUNCTION       CLEAR     77  66  68 CALM      30.11S
*LLANO         CLEAR     75  72  88 CALM      30.10S
BURNET         CLEAR     81  68  64 SE5       30.10S
*HORSESHOE BAY CLEAR     79  67  65 S5        30.07S
*KERRVILLE     CLEAR     74  64  70 CALM      30.11R
*FREDERICKSBRG CLEAR     73  65  75 CALM      30.11R
*ROCKSPRINGS   CLEAR     75  63  64 CALM      30.15S
*BOERNE STAGE  CLEAR     72  63  73 CALM      30.09S
*CASTROVILLE   CLEAR     80  71  72 CALM      30.06S
HONDO          CLEAR     79  73  82 SE7       30.07S
*UVALDE        CLEAR     79  72  77 E5        30.06R
DEL RIO        PTCLDY    84  64  50 E8        30.02F
LAUGHLIN AFB   NOT AVBL
CARRIZO SPRGS  PTCLDY    81  73  78 SE8       30.01F
$$

TXZ173-191>194-202-209-217>225-228-230800-
CENTRAL AND SOUTH CENTRAL TEXAS

CITY           SKY/WX    TMP DP  RH WIND       PRES   REMARKS
GEORGETOWN     CLEAR     75  72  88 CALM      30.07R
AUSTIN/BERGSTM PTCLDY    77  73  87 CALM      30.03F
AUSTIN/MABRY   CLEAR     81  72  74 CALM      30.05S
*AUSTIN/EXEC   PTCLDY    77  73  88 CALM      30.05R
*LAGO VISTA    CLEAR     81  70  69 E5        30.08S
SAN MARCOS     CLEAR     77  68  73 SE3       30.06S
NEW BRAUNFELS  CLEAR     75  71  87 S3        30.03S
RANDOLPH AFB   CLEAR     77  72  84 S6        30.05S
PT SAN ANTONIO CLEAR     79  74  84 S5        30.04S
SAN ANTONIO    PTCLDY    82  75  79 S9        30.05S
STINSON FIELD  CLEAR     81  75  82 CALM      30.03S
*PLEASANTON    CLEAR     79  73  82 SE3       30.03F
*LA GRANGE     CLEAR     81  75  83 CALM      30.01F
*GIDDINGS      CLEAR     79  73  81 CALM      30.07S
*GONZALES      CLEAR     80  76  87 S6        30.03S
$$

TXZ163>164-176>182-195>201-210>213-226-227-235-230800-
SOUTHEAST TEXAS

CITY           SKY/WX    TMP DP  RH WIND       PRES   REMARKS
COLLEGE STN    CLEAR     80  75  84 E7        30.04S
*BRYAN         CLEAR     77  75  92 CALM      30.04S
*CALDWELL      CLEAR     79  75  89 CALM      30.07S
*CROCKETT      CLEAR     75  73  94 CALM      30.08S FOG
*BRENHAM       CLEAR     80  75  85 CALM      30.03S
HUNTSVILLE     CLEAR     76  72  87 CALM      30.05S
CONROE         MOCLDY    76  75  97 CALM      30.04F FOG
HOUSTON BUSH   MOCLDY    79  74  84 CALM      30.02F
HOUSTON HOBBY  MOCLDY    80  76  87 CALM      30.02S
*HOUSTON SW AP CLEAR     77  77 100 CALM      30.02F
PEARLAND       CLEAR     81  76  84 CALM      30.03S
HOUSTON HOOKS  MOCLDY    82  76  81 CALM      30.02F
ELLINGTON FLD  MOCLDY    81  75  83 CALM      30.03S
SUGAR LAND     CLEAR     78  76  93 CALM      30.02F
*HOUSTON EXEC  MOCLDY    79  79 100 S5        30.03F
*CLEVELAND MUN CLOUDY    76  75  96 CALM      30.05R FOG
*WHARTON       CLEAR     78  75  92 CALM      30.03S
$$

TXZ214>216-236>238-230800-
THE UPPER TEXAS COAST

CITY           SKY/WX    TMP DP  RH WIND       PRES   REMARKS
*ORANGE        CLEAR     74  74 100 CALM      30.03S FOG
PORT ARTHUR    CLEAR     76  73  91 W3        30.02R
GALVESTON      CLEAR     83  78  85 SW3       30.03S HX  93
ANGLETON       CLEAR     78  76  93 N3        30.02F
*BAY CITY      MOCLDY    81  81 100 CALM      30.02F HX  92
PALACIOS       PTCLDY    84  77  79 S7        30.01S HX  94
$$

TXZ229>234-239>247-230800-
TEXAS COASTAL BEND AND RIO GRANDE PLAINS

CITY           SKY/WX    TMP DP  RH WIND       PRES   REMARKS
VICTORIA       CLEAR     79  77  94 SW3       30.02F
*BEEVILLE      CLEAR     78  78 100 SE3       30.03S FOG
ROCKPORT       CLEAR     82  77  84 S5        30.01S HX  90
*PORT ARANSAS  PTCLDY    81  78  91 S6        30.01F HX  90
*PORT LAVACA   CLEAR     78  76  94 SW3       30.01F
*INGLESIDE     CLEAR     82  78  88 S3        30.01F HX  91
CORPUS CHRISTI MOCLDY    79  75  87 SE5       30.02R
CORPUS NAS     PTCLDY    82  79  90 S7        30.01S HX  92
*ROBSTOWN      PTCLDY    80  78  91 SE3       30.02S FOG
ALICE          CLEAR     79  77  94 E3        30.01S FOG
KINGSVILLE NAS CLEAR     80  78  94 SE5       30.01S
COTULLA        CLEAR     82  73  74 SE8       30.02S
*FAITH RANCH   CLEAR     84  75  74 E8        30.02S HX  92
LAREDO         CLEAR     85  75  71 SE9       30.03S HX  93
$$

TXZ248>255-230800-
DEEP SOUTH TEXAS

CITY           SKY/WX    TMP DP  RH WIND       PRES   REMARKS
BROWNSVILLE    CLEAR     79  77  94 S6        30.01S
PORT ISABEL    CLEAR     82  77  84 S8        30.00S HX  90
*SOUTH PADRE     N/A     81  77  89 S7        30.01S
HARLINGEN      CLEAR     80  77  90 S9        30.00S
*HEBBRONVILLE  CLEAR     80  75  85 SE8       30.04S
MCALLEN        MOCLDY    82  77  84 SE12      30.02R HX  90
*WESLACO       NOT AVBL
FALFURRIAS     CLEAR     69  69 100 SE6       30.01S
EDINBURG       CLEAR     82  76  83 SE6       30.02S
*ZAPATA        CLEAR     84  73  67 SE9       30.01R HX  90
$$

TXZ213>215-236>238-242>244-246-247-251-254-255-230800-
CMAN STATIONS

STATION/POSITION TIME  TEMP    WIND        PRES    WAVE
                       AIR SEA DIR/SP/G            HT/PER
                 (UTC) (F)     (DEG/KT/KT) (MB)    (FT/S)
SABINE PASS      0600   82 86  100/  1/  2 1016.5
SEA RIM ST PARK  0600   81     340/  3/  4 1017.0
NORTH JETTY/GLS  0600   85 91  240/  5/  7   N/A
EAGLE POINT      0600   81 90  290/  2/  3 1016.8
MORGANS POINT    0600   83 91   CALM  /  3 1016.5
MISSION/ARANSAS  0600   83     160/ 10     1017.0
PORT O`CONNOR    0600          170/ 10/ 12   N/A
PORT ARANSAS     0600   82 88  150/  7/  8 1016.7
MALAQUITE BEACH  0600   82 85  150/  6/  7 1015.8
BAFFIN BAY       0600   82 84  160/ 10/ 12 1016.2
PORT ISABEL      0600   82 83  160/  9/ 12 1016.4
$$

GMZ080-GMZ150>470-230800-
OFFSHORE BUOY REPORTS

STATION/POSITION TIME  TEMP    WIND        PRES    WAVE
                       AIR SEA DIR/SP/G            HT/PER
                 (UTC) (F)     (DEG/KT/KT) (MB)    (FT/S)
90 E PT ARANSAS  0700   83 83  180/  6/  8 1016.7    2/ 6
35 NE PT MANSFLD 0600   83 83  160/ 10/ 12 1015.8    1/ 6
200 E PT ISABEL  0600   84 86  140/  8/ 10 1016.5    1/ 5
$$